Charlevoix, MI

3:20 PM EDT on March 27, 2017 (GMT -0400)
Charlevoix Municipal

Weather History for KCVX - October, 2012

Change the Weather History Date:

Wednesday, October 10, 2012

  Actual Average Record
Temperature  
Mean Temperature 44 °F -  
Max Temperature 46 °F 61 °F 77 °F (2003)
Min Temperature 41 °F 46 °F 35 °F (2005)
Degree Days  
Heating Degree Days 22    
Moisture  
Dew Point 33 °F    
Average Humidity 66    
Maximum Humidity 84    
Minimum Humidity 46    
Precipitation  
Precipitation 0.00 in - - ()
Sea Level Pressure  
Sea Level Pressure 29.88 in    
Wind  
Wind Speed 16 mph (WNW)    
Max Wind Speed 28 mph    
Max Gust Speed 34 mph    
Visibility 10 miles    
Events Rain    
Averages and records for this station are not official NWS values.
T = Trace of Precipitation, MM = Missing Value Source: NWS Daily Summary

Daily Weather History Graph

Daily Weather History Graph

Search for Another Location

Airport or City:

Trip Planner

Search our weather history database for the weather conditions in past years. The results will help you decide how hot, cold, wet, or windy it might be!

Date:

Astronomy

Oct. 10, 2012 Rise Set
Actual Time 7:51 AM EDT 7:03 PM EDT
Civil Twilight 7:21 AM EDT 7:33 PM EDT
Nautical Twilight 6:47 AM EDT 8:07 PM EDT
Astronomical Twilight 6:13 AM EDT 8:41 PM EDT
Moon 2:12 AM EDT (10/10) 4:18 PM EDT (10/10)
Length of Visible Light 12h 11m
Length of Day
11h 12m
Waning Crescent, 27% of the Moon is Illuminated
Oct 10
Waning Crescent
Oct 15
New
Oct 21
First Quarter
Oct 29
Full
Nov 6
Last Quarter

Hourly Weather History & Observations

Time (EDT) Temp. Windchill Dew Point Humidity Pressure Visibility Wind Dir Wind Speed Gust Speed Precip Events Conditions
12:14 AM 44.8 °F 41.6 °F 38.7 °F 79% 29.76 in 10.0 mi SW 5.8 mph - N/A   Light Drizzle
12:34 AM 45.5 °F 40.8 °F 39.4 °F 79% 29.76 in 10.0 mi WSW 9.2 mph - N/A   Overcast
12:54 AM 46.4 °F 41.9 °F 39.2 °F 76% 29.74 in 10.0 mi WSW 9.2 mph - N/A   Overcast
1:14 AM 46.4 °F 41.1 °F 38.5 °F 74% 29.75 in 10.0 mi WNW 11.5 mph 19.6 mph N/A   Overcast
1:34 AM 46.6 °F - 36.7 °F 68% 29.75 in 10.0 mi WNW 16.1 mph 19.6 mph N/A Rain Light Rain
1:54 AM 45.0 °F 38.2 °F 38.3 °F 77% 29.75 in 10.0 mi West 15.0 mph 23.0 mph N/A Rain Light Rain
2:14 AM 43.7 °F 37.7 °F 39.0 °F 84% 29.75 in 4.0 mi WNW 11.5 mph - N/A Rain Light Rain
2:34 AM 45.1 °F 37.9 °F 38.1 °F 76% 29.74 in 10.0 mi West 17.3 mph 21.9 mph N/A   Drizzle
2:54 AM 46.0 °F 39.0 °F 36.1 °F 68% 29.74 in 10.0 mi West 17.3 mph 24.2 mph N/A   Overcast
3:14 AM 45.5 °F 40.3 °F 37.0 °F 72% 29.74 in 7.0 mi SW 10.4 mph - N/A   Overcast
3:34 AM 44.6 °F 37.4 °F 38.7 °F 80% 29.74 in 10.0 mi WNW 16.1 mph 24.2 mph N/A Rain Light Rain
3:54 AM 45.5 °F 39.2 °F 37.2 °F 73% 29.74 in 10.0 mi WNW 13.8 mph 25.3 mph N/A   Mostly Cloudy
4:14 AM 45.1 °F 37.3 °F 36.9 °F 73% 29.74 in 10.0 mi WNW 19.6 mph 26.5 mph N/A   Mostly Cloudy
4:34 AM 44.8 °F 37.1 °F 36.0 °F 71% 29.74 in 10.0 mi West 18.4 mph 21.9 mph N/A   Scattered Clouds
4:54 AM 44.8 °F 37.4 °F 36.5 °F 73% 29.75 in 10.0 mi West 17.3 mph 26.5 mph N/A   Mostly Cloudy
5:15 AM 44.6 °F 37.4 °F 36.5 °F 73% 29.75 in 10.0 mi West 16.1 mph 23.0 mph N/A   Scattered Clouds
5:34 AM 44.6 °F 35.9 °F 36.7 °F 74% 29.75 in 10.0 mi West 23.0 mph 26.5 mph N/A   Mostly Cloudy
5:54 AM 44.6 °F 36.9 °F 36.7 °F 74% 29.76 in 10.0 mi West 18.4 mph 25.3 mph N/A   Overcast
6:15 AM 44.4 °F 36.6 °F 35.8 °F 72% 29.77 in 10.0 mi WNW 18.4 mph 25.3 mph N/A   Overcast
6:34 AM 44.4 °F 37.2 °F 35.2 °F 70% 29.77 in 10.0 mi WNW 16.1 mph 23.0 mph N/A   Overcast
6:54 AM 44.6 °F 36.9 °F 35.1 °F 69% 29.78 in 10.0 mi WNW 18.4 mph 23.0 mph N/A   Overcast
7:14 AM 44.1 °F 35.9 °F 35.8 °F 73% 29.79 in 10.0 mi WNW 19.6 mph 27.6 mph N/A   Overcast
7:34 AM 43.7 °F 35.4 °F 32.9 °F 66% 29.79 in 10.0 mi WNW 19.6 mph 29.9 mph N/A   Overcast
7:55 AM 43.7 °F 35.4 °F 32.9 °F 66% 29.80 in 10.0 mi WNW 19.6 mph 27.6 mph N/A   Overcast
8:14 AM 43.3 °F 36.1 °F 33.4 °F 68% 29.80 in 10.0 mi WNW 15.0 mph 24.2 mph N/A   Overcast
8:35 AM 42.8 °F 34.5 °F 32.4 °F 67% 29.81 in 10.0 mi WNW 18.4 mph 27.6 mph N/A   Overcast
8:54 AM 42.8 °F 36.2 °F 32.5 °F 67% 29.82 in 10.0 mi WNW 12.7 mph 24.2 mph N/A   Overcast
9:14 AM 43.0 °F 35.1 °F 31.8 °F 65% 29.83 in 10.0 mi WNW 17.3 mph 24.2 mph N/A   Overcast
9:35 AM 43.2 °F 35.3 °F 32.2 °F 65% 29.83 in 10.0 mi West 17.3 mph 24.2 mph N/A   Overcast
9:54 AM 43.0 °F 34.5 °F 32.4 °F 66% 29.84 in 10.0 mi WNW 19.6 mph 25.3 mph N/A   Overcast
10:14 AM 43.3 °F 34.7 °F 32.7 °F 66% 29.84 in 10.0 mi WNW 20.7 mph 27.6 mph N/A   Overcast
10:34 AM 43.2 °F 35.0 °F 32.9 °F 67% 29.84 in 10.0 mi WNW 18.4 mph 28.8 mph N/A   Overcast
10:54 AM 43.2 °F 34.5 °F 33.8 °F 70% 29.85 in 10.0 mi WNW 20.7 mph 28.8 mph N/A   Overcast
11:14 AM 43.7 °F 36.6 °F 32.4 °F 64% 29.85 in 10.0 mi WNW 15.0 mph 26.5 mph N/A   Overcast
11:34 AM 44.1 °F 35.9 °F 32.9 °F 65% 29.86 in 10.0 mi WNW 19.6 mph 27.6 mph N/A   Overcast
11:54 AM 44.2 °F 36.4 °F 33.1 °F 65% 29.87 in 10.0 mi WNW 18.4 mph 27.6 mph N/A   Overcast
12:14 PM 43.2 °F 35.6 °F 33.3 °F 68% 29.87 in 10.0 mi West 16.1 mph 26.5 mph N/A   Overcast
12:54 PM 44.6 °F 36.6 °F 34.7 °F 68% 29.88 in 10.0 mi WNW 19.6 mph 24.2 mph N/A   Overcast
1:14 PM 44.4 °F 35.9 °F 35.2 °F 70% 29.89 in 10.0 mi WNW 21.9 mph 29.9 mph N/A Rain Light Rain
1:34 PM 42.8 °F 35.8 °F 35.4 °F 75% 29.89 in 5.0 mi WNW 13.8 mph 25.3 mph N/A Rain Light Rain
1:54 PM 42.6 °F 34.3 °F 36.0 °F 77% 29.89 in 5.0 mi West 18.4 mph 26.5 mph N/A Rain Light Rain
2:15 PM 42.3 °F 35.1 °F 36.5 °F 80% 29.89 in 7.0 mi WNW 13.8 mph 25.3 mph N/A   Light Drizzle
2:34 PM 43.7 °F 35.4 °F 35.8 °F 74% 29.90 in 10.0 mi WNW 19.6 mph 27.6 mph N/A   Overcast
2:54 PM 42.6 °F 34.0 °F 35.4 °F 76% 29.91 in 7.0 mi West 19.6 mph 27.6 mph N/A Rain Light Rain
3:15 PM 42.8 °F 34.5 °F 34.9 °F 74% 29.91 in 10.0 mi WNW 18.4 mph 26.5 mph N/A Rain Light Rain
3:34 PM 42.4 °F 34.4 °F 35.4 °F 76% 29.92 in 10.0 mi WNW 17.3 mph 25.3 mph N/A Rain Light Rain
3:54 PM 43.3 °F 35.0 °F 33.8 °F 69% 29.92 in 10.0 mi WNW 19.6 mph 27.6 mph N/A   Overcast
4:14 PM 44.6 °F 35.7 °F 32.9 °F 64% 29.93 in 10.0 mi West 24.2 mph 28.8 mph N/A   Overcast
4:34 PM 44.8 °F 37.1 °F 31.8 °F 60% 29.93 in 10.0 mi WNW 18.4 mph 27.6 mph N/A   Overcast
4:54 PM 44.8 °F 36.9 °F 30.4 °F 57% 29.93 in 10.0 mi WNW 19.6 mph 31.1 mph N/A   Overcast
5:14 PM 43.5 °F 34.7 °F 32.2 °F 64% 29.94 in 10.0 mi West 21.9 mph 29.9 mph N/A   Overcast
5:34 PM 44.4 °F 35.7 °F 31.8 °F 61% 29.95 in 10.0 mi WNW 23.0 mph 28.8 mph N/A   Overcast
5:54 PM 44.1 °F 35.9 °F 32.0 °F 63% 29.96 in 10.0 mi WNW 19.6 mph 28.8 mph N/A   Overcast
6:14 PM 43.7 °F 35.7 °F 32.0 °F 63% 29.97 in 10.0 mi WNW 18.4 mph 27.6 mph N/A   Overcast
6:34 PM 42.6 °F 34.3 °F 32.4 °F 67% 29.98 in 10.0 mi WNW 18.4 mph 34.5 mph N/A Rain Light Rain
6:54 PM 43.7 °F 34.3 °F 29.7 °F 58% 29.99 in 10.0 mi WNW 25.3 mph 32.2 mph N/A   Overcast
7:14 PM 43.7 °F 33.9 °F 30.2 °F 59% 30.00 in 10.0 mi WNW 27.6 mph 33.4 mph N/A   Overcast
7:34 PM 43.7 °F 35.4 °F 29.3 °F 57% 30.01 in 10.0 mi WNW 19.6 mph 33.4 mph N/A   Overcast
7:55 PM 43.0 °F 33.8 °F 30.0 °F 60% 30.02 in 10.0 mi WNW 23.0 mph 32.2 mph N/A   Overcast
8:14 PM 43.0 °F 34.0 °F 25.5 °F 50% 30.03 in 10.0 mi WNW 21.9 mph 29.9 mph N/A   Overcast
8:34 PM 42.4 °F 33.5 °F 24.6 °F 49% 30.04 in 10.0 mi WNW 20.7 mph 28.8 mph N/A   Mostly Cloudy
8:54 PM 41.9 °F 31.9 °F 24.4 °F 50% 30.05 in 10.0 mi West 25.3 mph 33.4 mph N/A   Mostly Cloudy
9:14 PM 42.3 °F 34.1 °F 25.0 °F 50% 30.06 in 10.0 mi WNW 17.3 mph 32.2 mph N/A   Mostly Cloudy
9:54 PM 42.3 °F 34.4 °F 22.8 °F 46% 30.07 in 10.0 mi WNW 16.1 mph 26.5 mph N/A   Mostly Cloudy
10:14 PM 42.6 °F 34.9 °F 22.8 °F 46% 30.07 in 10.0 mi WNW 16.1 mph 27.6 mph N/A   Overcast
10:34 PM 43.0 °F 35.7 °F 23.5 °F 46% 30.07 in 10.0 mi WNW 15.0 mph 24.2 mph N/A   Overcast
10:54 PM 43.2 °F 35.0 °F 23.7 °F 46% 30.07 in 10.0 mi WNW 18.4 mph 26.5 mph N/A   Overcast
11:15 PM 43.3 °F 36.1 °F 24.1 °F 47% 30.08 in 10.0 mi WNW 15.0 mph 23.0 mph N/A   Overcast
11:34 PM 43.7 °F 36.3 °F 26.2 °F 50% 30.07 in 10.0 mi West 16.1 mph 21.9 mph N/A   Overcast
11:54 PM 43.5 °F 36.7 °F 26.4 °F 51% 30.07 in 10.0 mi West 13.8 mph - N/A   Overcast